Regional Weather Roundup
Issued by NWS

Home | Current Version | Previous Version | Graphics & Text | Print | Product List | Glossary On
Versions: 1 2 3 4 5 6 7 8 9 10 11 12 13 14 15 16 17 18 19 20 21 22 23 24 25 26 27 28 29 30 31 32 33 34 35 36 37 38 39 40 41 42 43 44 45 46 47 48 49 50
000
ASUS43 KDTX 230801
RWRMI
MICHIGAN HOURLY REGIONAL WEATHER ROUNDUP
NATIONAL WEATHER SERVICE DETROIT/PONTIAC MI
400 AM EDT TUE MAY 23 2017

NOTE: "FAIR" INDICATES FEW OR NO CLOUDS BELOW 12,000 FEET WITH NO
SIGNIFICANT WEATHER AND/OR OBSTRUCTION TO VISIBILITY.

MIZ047>049-052>055-059>063-066>070-074>076-081>083-230900-
SOUTHEAST LOWER MICHIGAN

CITY           SKY/WX    TMP DP  RH WIND       PRES   REMARKS
ADRIAN         CLOUDY    55  49  80 CALM      29.91F
ALMA           CLOUDY    57  51  79 S12       29.86F
ANN ARBOR      CLOUDY    55  50  83 CALM      29.90F
BAD AXE        PTCLDY    55  48  75 SW3       29.86F
CARO           CLOUDY    58  49  72 SW5       29.85F
DETROIT CITY   CLOUDY    58  50  75 S5        29.90F
DETROIT        CLOUDY    57  48  72 S5        29.91F
FLINT          CLOUDY    60  48  64 SW7       29.87F
GROSSE ILE     CLEAR     58  55  90 S8        29.91F
HILLSDALE      CLOUDY    55  46  71 S5        29.90F
HOWELL         CLOUDY    59  47  64 S5        29.89F

CITY           SKY/WX    TMP DP  RH WIND       PRES   REMARKS
JACKSON        CLOUDY    60  48  64 SW7       29.90F
LAMBERTVILLE   CLOUDY    56  49  74 S6        29.91F
LANSING        CLOUDY    61  48  62 S7        29.88F
LAPEER         MOCLDY    58  47  67 SW7       29.88F
MASON          CLOUDY    60  50  69 CALM      29.89F
MONROE         PTCLDY    56  49  77 S5        29.91F
MT. CLEMENS    CLOUDY    55  53  90 S6        29.89F
PONTIAC        CLOUDY    60  47  61 S7        29.88F
PORT HOPE        N/A     53  50  89 CALM      29.84F
PORT HURON     CLOUDY    55  48  76 S5        29.89F
TRI CITIES     CLOUDY    58  51  78 SW6       29.86F
MIDLAND        CLOUDY    55  50  86 CALM      29.84F
TROY           CLOUDY    61  45  56 S7        29.92F
SAGINAW HB     CLOUDY    59  46  63 SW8       29.85F
$$
MIZ043>046-050>051-056>058-064>065-071>073-077>080-230900-
SOUTHWEST LOWER MICHIGAN

CITY           SKY/WX    TMP DP  RH WIND       PRES   REMARKS
BATTLE CREEK   CLOUDY    59  51  75 S8        29.88F
BENTON HARBOR  CLOUDY    62  49  62 SW8       29.86F
BIG RAPIDS     CLOUDY    53  51  94 S7        29.83F
COLDWATER      LGT RAIN  59  50  73 CALM      29.90F
FREMONT        CLOUDY    56  53  89 SW6       29.83F
HOLLAND        CLOUDY    60  51  72 SW15      29.86F
GRAND RAPIDS   CLOUDY    59  53  80 SW8       29.86F
IONIA          CLOUDY    59  49  69 S5        29.86F
KALAMAZOO      CLOUDY    60  50  69 S7        29.88F
LUDINGTON      CLOUDY    49  48  97 CALM      29.82F
MARSHALL       LGT RAIN  59  51  74 S5        29.88F
MOUNT PLEASANT MOCLDY    54  52  91 CALM      29.84F
MUSKEGON       CLOUDY    56  51  84 S12       29.85F
SOUTH HAVEN    CLOUDY    61  52  71 SW8       29.85F
$$
MIZ016>042-230900-
NORTHERN LOWER MICHIGAN

CITY           SKY/WX    TMP DP  RH WIND       PRES   REMARKS
ALPENA         CLEAR     42  41  96 CALM      29.84F
BEAVER ISLAND  FOG       38  37  99 CALM      29.84F VSB 3/4
BELLAIRE       FOG       43  42  95 CALM      29.83F VSB 1/4
CADILLAC         N/A     41  40  97 CALM      29.83F
CHARLEVOIX     CLEAR     46  46 100 CALM      29.86F FOG
FRANKFORT      CLEAR     44  41  91 CALM      29.83F
GAYLORD        FOG       43  40  89 CALM      29.83F VSB 1/4
GRAYLING       CLEAR     40  39  97 CALM      29.85S
HARBOR SPRINGS FOG       44  44 100 CALM      29.84S VSB 3/4
HOUGHTON LAKE  FOG       44  43  96 S3        29.85F VSB 1/2
MANISTEE       PTCLDY    44  43  96 SE5       29.82F
OSCODA         CLOUDY    51  48  89 W8        29.85S
PELLSTON       FOG       41  39  93 NW3       29.84F VSB 1/2
ROGERS CITY    CLEAR     45  43  94 N3        29.84F
TRAVERSE CITY  CLEAR     46  43  89 CALM      29.82F
$$
MIZ007>008-015-230900-
EASTERN UPPER MICHIGAN

CITY           SKY/WX    TMP DP  RH WIND       PRES   REMARKS
KINROSS        FOG       46  46 100 SW5       29.84S VSB 1/2
MACKINAC ISLAN FOG       46  46 100 W3        29.84S VSB 1/2
NEWBERRY       FOG       37  37  97 S3        29.83R VSB 1/2
S. S. MARIE    FOG       47  46  97 VRB3      29.83S VSB 1/4
MUNISING         N/A     40  39  97 S5        29.82S
$$
MIZ004>006-011>014-085-230900-
CENTRAL UPPER MICHIGAN

CITY           SKY/WX    TMP DP  RH WIND       PRES   REMARKS
MANISTIQUE     FOG       35  32  89 CALM      29.83S VSB 1/2
ESCANABA       CLEAR     37  37 100 W3        29.84S
MENOMINEE      PTCLDY    42  41  96 CALM      29.83F FOG
SAWYER-GWINN   FOG       35  34  97 CALM      29.83S VSB 3/4
$$
MIZ001>003-009>011-084-230900-
WESTERN UPPER MICHIGAN

CITY           SKY/WX    TMP DP  RH WIND       PRES   REMARKS
IRON MOUNTAIN  FOG       34  32  92 CALM      29.81F VSB 1/4
HOUGHTON       PTCLDY    44  40  85 NW10      29.79F
COPPER HARBOR    N/A     48  43  82 VRB3      29.80F
IRONWOOD       CLOUDY    44  43  96 CALM      29.81F
$$

ABBREVIATIONS USED IN REMARKS
   TC - TEMPERATURE IN CELSIUS
  WCI - WIND CHILL INDEX
   HX - HEAT INDEX
  VSB - VISIBILITY




USA.gov is the U.S. government's official web portal to all federal, state and local government web resources and services.